DW4267 Weather Reports


time (UTC)temp
C
wind
direction
speed
KPH
gust
KPH
rain 1hr
cm
rain 24hr
cm
rain mn
cm
humidity
%
barometer
mb
20260502130326 23 0 1.6 6.4 0.00 0.00 0.00 25 1010.8
20260502123746 22 0 1.6 6.4 0.00 0.00 0.00 25 1010.4
20260502123519 22 0 1.6 3.2 0.00 0.00 0.00 25 1010.4
20260502122739 22 0 1.6 3.2 0.00 0.00 0.00 25 1010.3
20260502122445 22 0 1.6 4.8 0.00 0.00 0.00 25 1010.2
20260502121724 22 0 1.6 4.8 0.00 0.00 0.00 25 1010.2
20260502121219 22 0 1.6 4.8 0.00 0.00 0.00 25 1010.1
20260502120715 22 0 1.6 4.8 0.00 0.00 0.00 25 1010.0
20260502120434 22 0 1.6 3.2 0.00 0.00 0.00 25 1010.0
20260502115705 22 0 0.0 3.2 0.00 0.00 0.00 25 1010.1
20260502115408 22 0 0.0 1.6 0.00 0.00 0.00 25 1010.1
20260502114646 22 0 0.0 3.2 0.00 0.00 0.00 25 1010.0
20260502114139 23 0 1.6 6.4 0.00 0.00 0.00 24 1010.0
20260502113628 23 0 1.6 6.4 0.00 0.00 0.00 24 1009.9
20260502113122 22 0 3.2 8.0 0.00 0.00 0.00 24 1010.0
20260502112617 22 0 3.2 8.0 0.00 0.00 0.00 24 1009.9
20260502112107 22 0 1.6 4.8 0.00 0.00 0.00 25 1009.9
20260502111603 22 0 3.2 6.4 0.00 0.00 0.00 25 1009.9
20260502111057 22 0 1.6 6.4 0.00 0.00 0.00 25 1009.8
20260502110558 22 0 1.6 6.4 0.00 0.00 0.00 25 1009.6
20260502110100 22 0 1.6 4.8 0.00 0.00 0.00 25 1009.9
20260502105553 22 0 0.0 1.6 0.00 0.00 0.00 26 1009.9
20260502105039 22 0 0.0 3.2 0.00 0.00 0.00 26 1009.9
20260502104519 22 0 0.0 3.2 0.00 0.00 0.00 25 1009.9
20260502104457 23 0 0.0 3.2 0.00 0.00 0.00 25 1009.8
20260502103513 23 0 1.6 4.8 0.00 0.00 0.00 25 1009.8
20260502102957 23 0 1.6 6.4 0.00 0.00 0.00 25 1009.9
20260502102453 23 0 1.6 6.4 0.00 0.00 0.00 25 1009.9
20260502101945 23 0 1.6 6.4 0.00 0.00 0.00 25 1009.8
20260502101436 23 0 1.6 6.4 0.00 0.00 0.00 25 1009.8
20260502100932 23 0 1.6 4.8 0.00 0.00 0.00 25 1009.6
20260502100652 23 0 3.2 6.4 0.00 0.00 0.00 25 1009.8
20260502091322 23 0 3.2 11.3 0.00 0.00 0.00 25 1009.3
20260502090819 23 0 3.2 11.3 0.00 0.00 0.00 25 1009.4
20260502090318 23 0 3.2 6.4 0.00 0.00 0.00 25 1009.3
20260502071119 22 0 0.0 3.2 0.00 0.00 0.00 24 1008.6
20260502070611 22 0 0.0 1.6 0.00 0.00 0.00 24 1008.6
20260502070052 22 0 0.0 3.2 0.00 0.00 0.00 24 1008.6
20260502065545 22 0 0.0 3.2 0.00 0.00 0.00 23 1008.6
20260502065042 22 0 0.0 1.6 0.00 0.00 0.00 23 1008.6
20260502064806 22 0 1.6 3.2 0.00 0.00 0.00 23 1008.7
20260502064023 22 0 1.6 3.2 0.00 0.00 0.00 23 1008.6
20260502063733 22 0 0.0 3.2 0.00 0.00 0.00 23 1008.6
20260502063013 22 0 0.0 3.2 0.00 0.00 0.00 24 1008.7
20260502062512 22 0 0.0 3.2 0.00 0.00 0.00 24 1008.7
20260502061958 22 0 0.0 1.6 0.00 0.00 0.00 23 1008.7
20260502061449 23 0 0.0 0.0 0.00 0.00 0.00 24 1008.6
20260502060947 23 0 0.0 1.6 0.00 0.00 0.00 23 1008.6
20260502060441 23 0 0.0 1.6 0.00 0.00 0.00 23 1008.5
20260502060143 23 0 0.0 1.6 0.00 0.00 0.00 22 1008.5
20260502055418 23 0 0.0 1.6 0.00 0.00 0.00 23 1008.5
20260502055334 23 0 0.0 1.6 0.00 0.00 0.00 21 1008.4
20260502054347 23 0 0.0 0.0 0.00 0.00 0.00 21 1008.5
20260502053825 23 0 0.0 0.0 0.00 0.00 0.00 22 1008.5
20260502053322 23 0 0.0 0.0 0.00 0.00 0.00 22 1008.4
20260502052758 23 0 0.0 0.0 0.00 0.00 0.00 21 1008.5
20260502052258 24 0 0.0 0.0 0.00 0.00 0.00 21 1008.5
20260502051725 24 0 0.0 0.0 0.00 0.00 0.00 20 1008.4
20260502051447 24 0 0.0 0.0 0.00 0.00 0.00 22 1008.5
20260502050722 24 0 0.0 0.0 0.00 0.00 0.00 23 1008.6
20260502050213 25 267 0.0 0.0 0.00 0.00 0.00 20 1008.5
20260502045707 25 267 0.0 1.6 0.00 0.00 0.00 21 1008.5
20260502045419 25 267 0.0 1.6 0.00 0.00 0.00 21 1008.5
20260502044649 25 267 0.0 0.0 0.00 0.00 0.00 21 1008.5
20260502044559 25 267 0.0 0.0 0.00 0.00 0.00 21 1008.7
20260502043550 25 267 0.0 0.0 0.00 0.00 0.00 21 1008.6
20260502043533 25 267 0.0 0.0 0.00 0.00 0.00 21 1008.6
20260502042525 25 267 0.0 0.0 0.00 0.00 0.00 20 1008.6
20260502042022 25 267 0.0 1.6 0.00 0.00 0.00 20 1008.5
20260502041521 26 267 0.0 1.6 0.00 0.00 0.00 19 1008.5
20260502041014 26 267 0.0 1.6 0.00 0.00 0.00 21 1008.5
20260502040747 26 267 0.0 1.6 0.00 0.00 0.00 19 1008.4
20260502040015 26 263 0.0 1.6 0.00 0.00 0.00 19 1008.4
20260502035724 26 264 0.0 1.6 0.00 0.00 0.00 18 1008.3
20260502035233 26 262 0.0 0.0 0.00 0.00 0.00 19 1008.3
20260502034451 26 262 0.0 0.0 0.00 0.00 0.00 20 1008.2
20260502033940 27 262 0.0 0.0 0.00 0.00 0.00 19 1008.2
20260502033706 27 262 0.0 0.0 0.00 0.00 0.00 19 1008.2
20260502032932 27 262 0.0 0.0 0.00 0.00 0.00 19 1008.1
20260502032421 27 262 0.0 0.0 0.00 0.00 0.00 17 1008.1
20260502031919 28 262 0.0 0.0 0.00 0.00 0.00 17 1008.1
20260502031420 28 262 0.0 0.0 0.00 0.00 0.00 17 1008.1
20260502030855 28 262 0.0 0.0 0.00 0.00 0.00 17 1008.1
20260502030339 28 262 0.0 0.0 0.00 0.00 0.00 16 1008.1
20260502025819 28 262 0.0 1.6 0.00 0.00 0.00 16 1007.9
20260502025250 28 262 0.0 1.6 0.00 0.00 0.00 16 1008.0
20260502024726 29 262 0.0 1.6 0.00 0.00 0.00 16 1007.9
20260502024226 29 262 0.0 1.6 0.00 0.00 0.00 15 1007.8
20260502023721 29 262 1.6 3.2 0.00 0.00 0.00 16 1007.8
20260502023212 29 261 1.6 4.8 0.00 0.00 0.00 15 1007.8
20260502022706 29 288 1.6 4.8 0.00 0.00 0.00 15 1007.8
20260502022201 29 241 1.6 4.8 0.00 0.00 0.00 15 1007.7
20260502021922 30 234 3.2 8.0 0.00 0.00 0.00 15 1007.7
20260502021419 30 263 3.2 8.0 0.00 0.00 0.00 15 1007.7
20260502020640 30 258 3.2 8.0 0.00 0.00 0.00 15 1007.7
20260502020624 30 295 3.2 8.0 0.00 0.00 0.00 15 1007.7
20260502015620 30 277 4.8 9.7 0.00 0.00 0.00 15 1007.7
20260502015113 30 315 4.8 9.7 0.00 0.00 0.00 15 1007.7
20260502014607 30 254 4.8 9.7 0.00 0.00 0.00 15 1007.7
20260502014103 30 269 4.8 11.3 0.00 0.00 0.00 15 1007.6
20260502013557 30 11 6.4 11.3 0.00 0.00 0.00 14 1007.7
20260502013042 31 229 4.8 9.7 0.00 0.00 0.00 14 1007.7
20260502012534 31 257 4.8 11.3 0.00 0.00 0.00 15 1007.8
20260502012031 31 221 4.8 11.3 0.00 0.00 0.00 15 1007.7
20260502011523 31 226 3.2 12.9 0.00 0.00 0.00 15 1007.8
20260502011018 31 319 3.2 12.9 0.00 0.00 0.00 15 1007.8
20260502010508 31 315 3.2 8.0 0.00 0.00 0.00 15 1007.8
20260502010002 31 236 3.2 8.0 0.00 0.00 0.00 15 1007.8
20260502005456 31 262 4.8 9.7 0.00 0.00 0.00 15 1007.8
20260502004950 31 315 6.4 19.3 0.00 0.00 0.00 16 1007.8
20260502004701 31 258 4.8 19.3 0.00 0.00 0.00 16 1007.9
20260502003938 31 249 4.8 17.7 0.00 0.00 0.00 16 1007.9
20260502003656 31 250 4.8 9.7 0.00 0.00 0.00 16 1007.9
20260502003148 31 288 4.8 9.7 0.00 0.00 0.00 17 1007.8
20260502002648 31 335 4.8 11.3 0.00 0.00 0.00 17 1007.8
20260502001923 31 267 6.4 24.1 0.00 0.00 0.00 17 1007.8
20260502001422 32 344 6.4 24.1 0.00 0.00 0.00 17 1007.8
20260502000922 32 161 4.8 12.9 0.00 0.00 0.00 17 1007.9
20260502000651 32 355 4.8 11.3 0.00 0.00 0.00 17 1007.9
20260502000405 31 219 6.4 16.1 0.00 0.00 0.00 15 1007.8
20260501235419 31 269 6.4 16.1 0.00 0.00 0.00 15 1007.9
20260501234916 32 258 4.8 9.7 0.00 0.00 0.00 16 1007.8
20260501234416 31 244 4.8 9.7 0.00 0.00 0.00 16 1007.9
20260501233919 31 302 6.4 11.3 0.00 0.00 0.00 16 1007.9
20260501233424 31 299 6.4 12.9 0.00 0.00 0.00 16 1007.9
20260501232913 31 297 4.8 12.9 0.00 0.00 0.00 17 1008.0
20260501232412 31 331 6.4 14.5 0.00 0.00 0.00 17 1008.1
20260501231910 31 251 8.0 17.7 0.00 0.00 0.00 17 1008.1
20260501231412 32 249 6.4 17.7 0.00 0.00 0.00 17 1008.0
20260501230906 31 232 6.4 12.9 0.00 0.00 0.00 17 1008.1
20260501230400 31 241 6.4 11.3 0.00 0.00 0.00 17 1008.1
20260501225854 31 248 4.8 11.3 0.00 0.00 0.00 17 1008.1
20260501225349 31 169 3.2 12.9 0.00 0.00 0.00 17 1008.1
20260501224841 31 265 3.2 12.9 0.00 0.00 0.00 19 1008.2
20260501224335 31 296 4.8 12.9 0.00 0.00 0.00 19 1008.2
20260501223833 31 5 6.4 14.5 0.00 0.00 0.00 19 1008.3
20260501223332 32 306 4.8 14.5 0.00 0.00 0.00 19 1008.4
20260501222835 32 5 3.2 9.7 0.00 0.00 0.00 19 1008.5
20260501222330 31 317 4.8 11.3 0.00 0.00 0.00 19 1008.5
20260501221834 31 142 8.0 16.1 0.00 0.00 0.00 19 1008.6
20260501221332 31 175 6.4 16.1 0.00 0.00 0.00 19 1008.7
20260501220829 31 250 6.4 12.9 0.00 0.00 0.00 19 1008.7
20260501220337 31 277 6.4 14.5 0.00 0.00 0.00 19 1008.7
20260501220330 31 232 6.4 14.5 0.00 0.00 0.00 19 1008.7
20260501215330 31 271 6.4 12.9 0.00 0.00 0.00 19 1008.8
20260501214827 31 282 6.4 12.9 0.00 0.00 0.00 20 1008.9
20260501214327 31 265 6.4 11.3 0.00 0.00 0.00 20 1008.8
20260501213820 31 302 4.8 14.5 0.00 0.00 0.00 20 1009.0
20260501213316 31 18 4.8 14.5 0.00 0.00 0.00 19 1009.0
20260501212815 31 318 4.8 9.7 0.00 0.00 0.00 19 1009.2
20260501212314 31 134 3.2 8.0 0.00 0.00 0.00 19 1009.3
20260501211816 31 126 3.2 8.0 0.00 0.00 0.00 20 1009.2
20260501211313 31 302 4.8 8.0 0.00 0.00 0.00 20 1009.3
20260501210816 31 5 4.8 14.5 0.00 0.00 0.00 20 1009.3
20260501210315 31 12 4.8 14.5 0.00 0.00 0.00 20 1009.4
20260501205812 32 317 3.2 11.3 0.00 0.00 0.00 20 1009.5
20260501205312 32 278 3.2 11.3 0.00 0.00 0.00 19 1009.8
20260501204800 32 159 3.2 6.4 0.00 0.00 0.00 19 1009.8
20260501204252 31 343 3.2 11.3 0.00 0.00 0.00 19 1009.6
20260501203750 31 67 3.2 11.3 0.00 0.00 0.00 20 1009.8
20260501203249 31 66 3.2 12.9 0.00 0.00 0.00 20 1009.8
20260501202744 31 235 4.8 12.9 0.00 0.00 0.00 20 1009.8
20260501202244 31 121 4.8 9.7 0.00 0.00 0.00 20 1009.8
20260501201745 31 79 4.8 12.9 0.00 0.00 0.00 20 1009.9
20260501201242 31 101 4.8 12.9 0.00 0.00 0.00 20 1009.9
20260501200747 31 267 3.2 11.3 0.00 0.00 0.00 20 1009.9
20260501200234 30 245 4.8 14.5 0.00 0.00 0.00 20 1009.9
20260501195717 30 172 3.2 14.5 0.00 0.00 0.00 20 1010.0
20260501195203 30 68 3.2 8.0 0.00 0.00 0.00 20 1010.0
20260501194653 30 302 3.2 9.7 0.00 0.00 0.00 20 1010.1
20260501194140 30 180 3.2 12.9 0.00 0.00 0.00 21 1010.2
20260501193631 30 213 3.2 11.3 0.00 0.00 0.00 21 1010.2
20260501193347 30 259 4.8 14.5 0.00 0.00 0.00 21 1010.4
20260501192629 30 211 4.8 14.5 0.00 0.00 0.00 21 1010.5
20260501192129 30 159 4.8 12.9 0.00 0.00 0.00 22 1010.5
20260501191627 30 286 4.8 9.7 0.00 0.00 0.00 22 1010.5
20260501191129 29 159 4.8 9.7 0.00 0.00 0.00 22 1010.4
20260501190628 28 188 3.2 9.7 0.00 0.00 0.00 23 1010.5
20260501190125 28 300 3.2 8.0 0.00 0.00 0.00 24 1010.5
20260501185856 28 279 3.2 11.3 0.00 0.00 0.00 24 1010.5
20260501185123 28 331 4.8 11.3 0.00 0.00 0.00 25 1010.6
20260501184618 28 263 6.4 11.3 0.00 0.00 0.00 26 1010.7
20260501184110 28 297 4.8 9.7 0.00 0.00 0.00 25 1010.9
20260501183843 29 253 4.8 9.7 0.00 0.00 0.00 25 1010.9
20260501183059 29 246 3.2 9.7 0.00 0.00 0.00 24 1011.0
20260501182557 29 46 3.2 11.3 0.00 0.00 0.00 24 1011.0
20260501182325 29 345 3.2 11.3 0.00 0.00 0.00 23 1011.2
20260501181554 30 40 3.2 6.4 0.00 0.00 0.00 22 1011.4
20260501181055 29 57 3.2 6.4 0.00 0.00 0.00 23 1011.3
20260501180552 29 19 3.2 6.4 0.00 0.00 0.00 24 1011.4
20260501180323 29 94 3.2 6.4 0.00 0.00 0.00 24 1011.5
20260501175820 28 188 1.6 6.4 0.00 0.00 0.00 24 1011.4
20260501175049 28 239 1.6 6.4 0.00 0.00 0.00 23 1011.4
20260501174547 28 120 3.2 6.4 0.00 0.00 0.00 25 1011.5
20260501174043 28 63 3.2 8.0 0.00 0.00 0.00 25 1011.5
20260501173538 28 58 3.2 8.0 0.00 0.00 0.00 26 1011.4
20260501173519 28 350 3.2 8.0 0.00 0.00 0.00 26 1011.5
20260501172800 27 175 3.2 8.0 0.00 0.00 0.00 26 1011.4
20260501172032 27 132 1.6 8.0 0.00 0.00 0.00 28 1011.4
20260501172019 26 263 3.2 8.0 0.00 0.00 0.00 28 1011.3
20260501171028 26 225 4.8 8.0 0.00 0.00 0.00 28 1011.3
20260501170754 26 355 3.2 8.0 0.00 0.00 0.00 28 1011.3
20260501170026 26 166 3.2 6.4 0.00 0.00 0.00 29 1011.3
20260501165526 26 302 3.2 6.4 0.00 0.00 0.00 28 1011.4
20260501165029 26 343 3.2 6.4 0.00 0.00 0.00 28 1011.3
20260501164517 26 338 3.2 8.0 0.00 0.00 0.00 29 1011.2
20260501164010 26 294 3.2 8.0 0.00 0.00 0.00 29 1011.2
20260501163502 26 38 3.2 8.0 0.00 0.00 0.00 30 1011.2
20260501162958 25 0 3.2 9.7 0.00 0.00 0.00 31 1011.1
20260501162452 25 310 4.8 11.3 0.00 0.00 0.00 31 1011.1
20260501161943 25 271 4.8 11.3 0.00 0.00 0.00 31 1011.1
20260501161438 25 38 4.8 14.5 0.00 0.00 0.00 32 1011.0
20260501160938 25 342 4.8 14.5 0.00 0.00 0.00 31 1011.0
20260501160430 25 294 3.2 8.0 0.00 0.00 0.00 31 1011.0
20260501155932 25 277 1.6 6.4 0.00 0.00 0.00 32 1011.0
20260501155427 25 146 1.6 6.4 0.00 0.00 0.00 32 1010.9
20260501154924 25 123 1.6 6.4 0.00 0.00 0.00 33 1010.8
20260501154423 24 148 3.2 6.4 0.00 0.00 0.00 34 1010.8
20260501153921 24 192 1.6 4.8 0.00 0.00 0.00 35 1010.7
20260501153418 24 197 1.6 6.4 0.00 0.00 0.00 36 1010.7
20260501152916 23 136 1.6 6.4 0.00 0.00 0.00 36 1010.6
20260501152416 23 134 1.6 6.4 0.00 0.00 0.00 36 1010.5
20260501151912 23 189 1.6 8.0 0.00 0.00 0.00 37 1010.4
20260501151409 23 49 1.6 8.0 0.00 0.00 0.00 37 1010.4
20260501150909 22 137 1.6 6.4 0.00 0.00 0.00 37 1010.2
20260501150406 22 110 1.6 6.4 0.00 0.00 0.00 38 1010.2
20260501150349 22 113 1.6 6.4 0.00 0.00 0.00 39 1010.1
20260501145629 21 134 1.6 6.4 0.00 0.00 0.00 40 1010.0
20260501144904 21 149 3.2 9.7 0.00 0.00 0.00 40 1009.9
20260501144402 21 101 4.8 9.7 0.00 0.00 0.00 41 1009.9
20260501143900 21 152 4.8 9.7 0.00 0.00 0.00 41 1009.5
20260501143617 20 121 3.2 9.7 0.00 0.00 0.00 42 1009.5
20260501142853 20 121 1.6 6.4 0.00 0.00 0.00 43 1009.3